Flag Weather past 2 weeks in Karachi, Sindh, Pakistan

Now
79 °F

Clear.


Feels Like: 81 °F
Forecast: 72 / 84 °F
Wind: 14 mph from Southwest

Location: Karachi Airport

Current Time: Nov 27, 2014 at 8:00:27 PM

Latest Report: Nov 27, 2014 at 6:55 PM


Visibility: 4 mi

Pressure: 29.83 "Hg

Humidity: 74%

Dew point: 70 °F

Location of KarachiLocation

Historic Weather in Karachi — Graph

°F

Karachi temperature yesterday

Maximum temperature yesterday: 86 °F (at 12:25 PM)
Minimum temperature yesterday: 63 °F (at 5:55 AM)
Average temperature yesterday: 75 °F

Past Weeks' High & Low Weather Summary

 TemperatureHumidityPressure
High93 °F (Nov 14, 1:25 PM)89% (Nov 22, 8:55 AM)30.09 "Hg (Nov 22, 8:55 AM)
Low59 °F (Nov 16, 5:55 AM)9% (Nov 13, 1:25 PM)29.80 "Hg (Nov 27, 3:55 PM)
Average77 °F40%29.96 "Hg
* Reported Nov 12 6:25 PM — Nov 27 6:55 PM, Karachi, Weather by CustomWeather, © 2014

Note: Actual official high and low records may vary slightly from our data, if they occured in-between our weather recording intervals... More about our weather records

Advertising

Karachi weather history for previous 24 hours

 ConditionsComfort  
Time TempWeatherWind HumidityBarometerVisibility
6:55 PM
Nov 27
79 °FClear.14 mph74%29.83 "Hg4 mi
6:25 PM79 °FClear.12 mph74%29.83 "Hg4 mi
5:55 PM81 °FClear.9 mph66%29.80 "Hg4 mi
5:25 PM82 °FClear.12 mph62%29.80 "Hg4 mi
4:55 PM84 °FClear.14 mph58%29.80 "Hg5 mi
4:25 PM86 °FClear.12 mph52%29.80 "Hg5 mi
3:55 PM86 °FClear.12 mph55%29.80 "Hg5 mi
11:55 AM86 °FScattered clouds.9 mph52%29.89 "Hg4 mi
11:25 AM84 °FClear.15 mph55%29.89 "Hg4 mi
10:55 AM84 °FClear.12 mph55%29.89 "Hg4 mi
10:25 AM82 °FPassing clouds.12 mph62%29.92 "Hg4 mi
9:55 AM82 °FPassing clouds.14 mph62%29.92 "Hg3 mi
9:25 AM81 °FSmoke.7 mph66%29.89 "Hg3 mi
8:55 AM79 °FPassing clouds.14 mph74%29.89 "Hg2 mi
8:25 AM77 °FPassing clouds.9 mph83%29.89 "Hg2 mi
7:55 AM75 °FPassing clouds.6 mph83%29.89 "Hg2 mi
7:25 AM75 °FPassing clouds.5 mph83%29.89 "Hg2 mi
7:00 AM75 °FPassing clouds.5 mph83%29.86 "Hg2 mi
6:25 AM75 °FPassing clouds.6 mph83%29.86 "Hg3 mi
4:55 AM72 °FClear.2 mph88%29.83 "Hg3 mi
4:25 AM72 °FClear.No wind88%29.83 "Hg4 mi
3:55 AM72 °FClear.6 mph88%29.83 "Hg4 mi
3:25 AM72 °FClear.7 mph88%29.83 "Hg4 mi
2:55 AM73 °FClear.6 mph89%29.83 "Hg4 mi
2:25 AM73 °FClear.5 mph89%29.83 "Hg4 mi
1:55 AM75 °FClear.6 mph83%29.83 "Hg4 mi
1:25 AM75 °FClear.6 mph83%29.83 "Hg4 mi
12:55 AM75 °FClear.6 mph83%29.86 "Hg4 mi
12:25 AM75 °FClear.6 mph83%29.86 "Hg4 mi
11:25 PM
Nov 26
75 °FClear.9 mph83%29.86 "Hg4 mi
10:55 PM75 °FClear.3 mph78%29.89 "Hg4 mi
10:25 PM77 °FClear.7 mph79%29.89 "Hg4 mi
9:55 PM77 °FClear.9 mph79%29.89 "Hg4 mi
9:25 PM77 °FClear.9 mph74%29.89 "Hg4 mi
8:55 PM77 °FClear.10 mph74%29.89 "Hg4 mi
8:25 PM77 °FClear.8 mph69%29.89 "Hg4 mi
Weather by CustomWeather, © 2014

See weather overviewHow to use our weather pages